DW0835 Weather Reports


time (UTC)temp
C
wind
direction
speed
KPH
gust
KPH
rain 1hr
cm
rain 24hr
cm
rain mn
cm
humidity
%
barometer
mb
20260906140529 22 0.0 0.0 0.00 0.03 0.00 76 1019.8
20260906135518 22 0.0 0.0 0.00 0.03 0.00 75 1019.8
20260906134529 23 0.0 0.0 0.00 0.03 0.00 74 1019.9
20260906133529 23 0.0 0.0 0.00 0.03 0.00 72 1019.8
20260906132518 23 0.0 0.0 0.00 0.03 0.00 74 1019.5
20260906131529 23 0.0 0.0 0.00 0.03 0.00 75 1019.5
20260906130529 22 0.0 1.6 0.00 0.03 0.00 76 1019.2
20260906125609 22 0.0 0.0 0.00 0.03 0.00 80 1019.2
20260906124517 21 0.0 0.0 0.00 0.03 0.00 85 1019.1
20260906123529 20 0.0 0.0 0.00 0.03 0.00 89 1019.0
20260906122530 19 0.0 0.0 0.00 0.03 0.00 93 1018.7
20260906121518 18 0.0 0.0 0.00 0.03 0.00 93 1018.6
20260906120529 18 0.0 0.0 0.00 0.03 0.00 93 1018.5
20260906115517 18 0.0 0.0 0.00 0.03 0.00 93 1018.5
20260906114518 18 0.0 0.0 0.00 0.03 0.00 93 1018.5
20260906113529 18 0.0 0.0 0.00 0.03 0.00 93 1018.1
20260906112517 18 0.0 0.0 0.00 0.03 0.00 93 1018.0
20260906111549 18 0.0 0.0 0.00 0.03 0.00 93 1018.0
20260906110518 18 0.0 0.0 0.00 0.03 0.00 93 1017.8
20260906105529 18 0.0 0.0 0.00 0.03 0.00 93 1017.9
20260906104517 18 0.0 0.0 0.00 0.03 0.00 93 1017.9
20260906103518 18 0.0 0.0 0.00 0.03 0.00 93 1018.0
20260906102549 18 0.0 0.0 0.00 0.03 0.00 93 1017.7
20260906101517 18 0.0 0.0 0.00 0.03 0.00 93 1017.7
20260906100609 18 0.0 0.0 0.00 0.03 0.00 93 1017.8
20260906095519 18 0.0 0.0 0.00 0.03 0.00 93 1017.6
20260906094529 18 0.0 0.0 0.00 0.03 0.00 93 1017.6
20260906093530 18 0.0 0.0 0.00 0.03 0.00 93 1017.5
20260906092529 18 0.0 0.0 0.00 0.03 0.00 93 1017.6
20260906091529 18 0.0 0.0 0.00 0.03 0.00 93 1017.6
20260906090519 18 0.0 0.0 0.00 0.03 0.00 92 1017.7
20260906085519 18 0.0 0.0 0.00 0.03 0.00 92 1017.7
20260906084551 18 0.0 0.0 0.00 0.03 0.00 92 1017.7
20260906083558 18 0.0 0.0 0.00 0.03 0.00 92 1017.5
20260906082518 18 0.0 0.0 0.00 0.03 0.00 92 1017.5
20260906081531 18 0.0 0.0 0.00 0.03 0.00 92 1017.5
20260906080550 18 0.0 0.0 0.00 0.03 0.00 92 1017.6
20260906075531 18 0.0 0.0 0.00 0.03 0.00 92 1017.4
20260906074539 18 0.0 0.0 0.00 0.03 0.00 92 1017.4
20260906073530 19 0.0 0.0 0.00 0.03 0.00 92 1017.2
20260906072530 19 0.0 0.0 0.00 0.03 0.00 92 1017.2
20260906071530 19 0.0 0.0 0.00 0.03 0.00 92 1017.2
20260906070530 19 0.0 0.0 0.00 0.03 0.00 92 1017.3
20260906065530 19 0.0 0.0 0.00 0.03 0.00 92 1017.5
20260906064610 20 0.0 0.0 0.00 0.03 0.00 93 1017.5
20260906063519 20 0.0 0.0 0.00 0.03 0.00 93 1017.5
20260906062530 20 0.0 0.0 0.00 0.03 0.00 93 1017.4
20260906061530 20 0.0 0.0 0.00 0.03 0.00 93 1017.4
20260906060530 20 0.0 0.0 0.00 0.03 0.00 93 1017.1
20260906055519 20 0.0 0.0 0.00 0.03 0.00 93 1017.2
20260906054530 20 0.0 0.0 0.00 0.03 0.00 93 1017.2
20260906053530 20 0.0 0.0 0.00 0.03 0.00 93 1017.4
20260906052539 20 0.0 0.0 0.00 0.03 0.00 93 1017.1
20260906051530 20 0.0 0.0 0.00 0.03 0.00 93 1017.1
20260906050530 19 0.0 0.0 0.00 0.03 0.00 93 1016.9
20260906045549 19 0.0 0.0 0.00 0.03 0.03 93 1017.0
20260906044530 19 0.0 0.0 0.00 0.03 0.03 93 1017.0
20260906043548 19 0.0 0.0 0.00 0.03 0.03 93 1016.7
20260906042517 19 0.0 0.0 0.00 0.03 0.03 92 1016.5
20260906041549 19 0.0 0.0 0.00 0.03 0.03 92 1016.5
20260906040530 19 0.0 0.0 0.00 0.03 0.03 92 1016.7
20260906035519 19 0.0 0.0 0.00 0.03 0.03 92 1016.8
20260906034529 19 0.0 0.0 0.00 0.03 0.03 91 1016.8
20260906033528 19 0.0 1.6 0.00 0.03 0.03 91 1016.6
20260906032519 19 0.0 0.0 0.00 0.03 0.03 91 1016.6
20260906031551 20 0.0 0.0 0.00 0.03 0.03 90 1016.6
20260906030517 20 0.0 3.2 0.00 0.03 0.03 90 1016.7
20260906025530 20 0.0 3.2 0.00 0.03 0.03 90 1016.5
20260906024630 20 0.0 3.2 0.00 0.03 0.03 90 1016.5
20260906023528 20 0.0 4.8 0.00 0.03 0.03 90 1016.5
20260906022530 20 0.0 4.8 0.00 0.03 0.03 89 1016.5
20260906021548 20 0.0 1.6 0.00 0.03 0.03 89 1016.5
20260906020530 20 0.0 4.8 0.00 0.03 0.03 88 1016.4
20260906015530 20 0.0 3.2 0.00 0.03 0.03 88 1016.5
20260906014530 20 0.0 0.0 0.00 0.03 0.03 89 1016.5
20260906013530 20 0.0 1.6 0.00 0.03 0.03 89 1016.4
20260906012530 20 0.0 1.6 0.00 0.03 0.03 90 1016.4
20260906011519 20 0.0 0.0 0.00 0.03 0.03 90 1016.5
20260906010530 20 0.0 0.0 0.00 0.03 0.03 90 1016.2
20260906005530 20 0.0 0.0 0.00 0.03 0.03 91 1016.2
20260906004519 20 0.0 1.6 0.00 0.03 0.03 91 1016.1
20260906003530 20 0.0 1.6 0.00 0.03 0.03 91 1016.1
20260906002530 20 0.0 1.6 0.00 0.03 0.03 91 1016.4
20260906001519 20 0.0 3.2 0.00 0.03 0.03 92 1016.4
20260906000530 20 0.0 3.2 0.00 0.03 0.03 92 1016.4
20260905235530 20 0.0 0.0 0.00 0.03 0.03 91 1016.3
20260905234522 20 0.0 0.0 0.00 0.03 0.03 91 1016.3
20260905233548 20 0.0 1.6 0.00 0.03 0.03 91 1016.4
20260905232550 20 0.0 1.6 0.00 0.03 0.03 92 1016.4
20260905231550 20 0.0 1.6 0.00 0.03 0.03 91 1016.4
20260905230518 20 0.0 1.6 0.03 0.03 0.03 92 1016.4
20260905225530 20 0.0 0.0 0.03 0.03 0.03 91 1016.4
20260905224530 20 0.0 1.6 0.03 0.03 0.03 91 1016.4
20260905223530 20 0.0 3.2 0.03 0.03 0.03 91 1016.2
20260905222529 20 0.0 1.6 0.03 0.03 0.03 90 1015.9
20260905221538 20 0.0 3.2 0.03 0.03 0.03 90 1015.9
20260905220549 20 0.0 3.2 0.00 0.00 0.00 90 1015.9
20260905215538 20 0.0 1.6 0.00 0.00 0.00 90 1015.9
20260905214530 20 0.0 1.6 0.00 0.00 0.00 90 1015.9
20260905213518 21 0.0 3.2 0.00 0.00 0.00 89 1015.9
20260905212530 21 0.0 1.6 0.00 0.00 0.00 89 1015.8
20260905211529 21 0.0 1.6 0.00 0.00 0.00 90 1015.8
20260905210529 21 0.0 3.2 0.00 0.00 0.00 89 1015.8
20260905205518 21 0.0 1.6 0.00 0.00 0.00 89 1015.7
20260905204529 21 0.0 1.6 0.00 0.00 0.00 90 1015.6
20260905203529 21 0.0 3.2 0.00 0.00 0.00 90 1015.6
20260905202529 21 0.0 1.6 0.00 0.00 0.00 90 1015.8
20260905201529 21 0.0 1.6 0.00 0.00 0.00 89 1015.8
20260905200518 21 0.0 0.0 0.00 0.00 0.00 89 1015.7
20260905195538 21 0.0 1.6 0.00 0.00 0.00 89 1015.5
20260905194549 21 0.0 1.6 0.00 0.00 0.00 89 1015.6
20260905193529 21 0.0 1.6 0.00 0.00 0.00 91 1015.5
20260905192549 21 0.0 1.6 0.00 0.00 0.00 90 1015.5
20260905191529 21 0.0 3.2 0.00 0.00 0.00 91 1015.5
20260905190518 21 0.0 0.0 0.00 0.00 0.00 91 1015.7
20260905185518 21 0.0 1.6 0.00 0.00 0.00 92 1015.6
20260905184529 21 0.0 0.0 0.00 0.00 0.00 92 1015.6
20260905183529 21 0.0 0.0 0.00 0.00 0.00 93 1015.6
20260905182518 21 0.0 1.6 0.00 0.00 0.00 93 1015.5
20260905181529 21 0.0 0.0 0.00 0.00 0.00 93 1015.5
20260905180529 21 0.0 3.2 0.00 0.00 0.00 93 1015.4
20260905175518 21 0.0 1.6 0.00 0.00 0.00 94 1015.5
20260905174518 21 0.0 0.0 0.00 0.00 0.00 94 1015.5
20260905173518 21 0.0 1.6 0.00 0.00 0.00 94 1015.5
20260905172529 21 0.0 1.6 0.00 0.00 0.00 95 1015.4
20260905171529 20 0.0 1.6 0.00 0.00 0.00 95 1015.4
20260905170518 20 0.0 0.0 0.00 0.00 0.00 95 1015.5
20260905165517 20 0.0 1.6 0.00 0.00 0.00 95 1015.7
20260905164517 20 0.0 1.6 0.00 0.00 0.00 95 1015.7
20260905163518 21 0.0 1.6 0.00 0.00 0.00 95 1015.5
20260905162529 21 0.0 0.0 0.00 0.00 0.00 96 1015.5
20260905161529 21 0.0 0.0 0.00 0.00 0.00 95 1015.5
20260905160519 20 0.0 0.0 0.00 0.00 0.00 95 1015.4
20260905155537 20 0.0 0.0 0.00 0.00 0.00 96 1015.4
20260905154529 20 0.0 3.2 0.00 0.05 0.00 95 1015.4
20260905153527 20 0.0 1.6 0.00 0.05 0.00 96 1015.4
20260905152528 20 0.0 1.6 0.00 0.05 0.00 95 1015.3
20260905151529 20 0.0 1.6 0.00 0.05 0.00 96 1015.3
20260905150549 20 0.0 3.2 0.00 0.05 0.00 96 1015.2
20260905145551 20 0.0 1.6 0.00 0.05 0.00 95 1014.9
20260905144531 20 0.0 1.6 0.00 0.05 0.00 95 1014.9
20260905143529 20 0.0 0.0 0.00 0.23 0.00 95 1014.6
20260905142529 20 0.0 1.6 0.00 0.23 0.00 95 1014.6
20260905141519 20 0.0 0.0 0.00 0.25 0.00 95 1014.6